Location: Gleizolles
(44.4833°N, 6.7667°E)
Time: 21:25:29
(UTC+00:00)

Explorer 7 - Pass Details

Date: 20 June 2024
Orbit: 465 x 619 km, 50.3° (Epoch: 19 July)

Event Time Altitude Azimuth Distance (km) Brightness Sun altitude
Rises 10:28:44 0° 213° (SSW) 2,686 10.4 65.0°
Reaches altitude 10° 10:31:10 10° 203° (SSW) 1,768 9.7 65.3°
Maximum altitude 10:34:43 31° 141° (SE) 920 9.0 65.6°
Drops below altitude 10° 10:38:08 10° 78° (ENE) 1,697 9.6 66.0°
Sets 10:40:25 0° 68° (ENE) 2,559 10.3 66.2°
